Dia Oficial

Diário Oficial do Estado do Ceará · 27/04/2026 · pág. 55

DOE 27/04/2026 - Diario Oficial do Estado do Ceara - Caderno 2

Baixar página em PDF · Criar alerta deste tema

O visualizador interativo precisa de JavaScript — baixe a página original em PDF.

TEXTO OFICIAL · ÍNTEGRA

119

DIÁRIO OFICIAL DO ESTADO | SÉRIE 3 | ANO XVIII Nº074 | FORTALEZA, 27 DE ABRIL DE 2026

PROCESSOS AUTUADO CPF/CNPJ NÚMERO DO AR ENVIADO
06246824/2021 ICAPUÍ GÁS LTDA 01.806.349/0001-88 YO 079308762 BR
000762368/2023 JOEL RIBEIRO SOARES 071.754.703-55 YO 067262652 BR
02472548/2023 S A PAULISTA DE CONSTRUÇÕES E COMÉRCIO 60.332.319/0003-08 YO 076122525 BR
09073728/2022 ANA CAMILA AMORIM PACHECO 28.247.530/0001-58 YO 076794115 BR

Registre-se e publique-se. Fortaleza, 16 de abril de 2026.

Karyna Leal Ramos

SECRETÁRIA EXECUTIVA DE PLANEJAMENTO E GESTÃO INTERNA

SUPERINTENDÊNCIA ESTADUAL DO MEIO AMBIENTE

PORTARIA Nº17/2026 O SUPERINTENDENTE DA SUPERINTENDÊNCIA ESTADUAL DO MEIO AMBIENTE, no uso das atribuições legais, RESOLVE AUTORIZAR os SERVIDORES relacionados no Anexo único desta Portaria, a viajarem em objeto de serviço, com a finalidade de realizarem Inspeções Técnicas, Reuniões, Audiências Públicas e outros, concedendo-lhes diárias, de acordo com o artigo 1º; alínea II § 2º do art.4º; e art. 16, classe II do anexo I do Decreto nº 35.922, de 27 de março de 2024, e Portaria nº 09/2026, de 02 de fevereiro de 2026, devendo a despesa correr à conta da dotação orçamentária da SEMACE. SUPERINTENDÊNCIA ESTADUAL DO MEIO AMBIENTE, em Fortaleza, 02 de fevereiro de 2026. João Gabriel Laprovitera Rocha

SUPERINTENDENTE

ANEXO ÚNICO A QUE SE REFERE A PORTARIA Nº17/2026

NOME CARGO/
MATRÍCULA CLASSE PERÍODO ROTEIRO DIÁRIAS
FUNÇÃO QUANT. VALOR TOTAL
Ana Paula Silva de Oliveira DNS-3 300001-6-1 II 02 a 03.02.2026 Granja/Morrinhos 1.5 143,66 215,49
Fernanda Dantas Bomtempo Fiscal Ambiental 300011-9-2 II 02 a 03.02.2026 Granja/Morrinhos 1.5 143,66 215,49
Francisco Ewerton Pimental DNS-3 300011-8-4 II 03 a 04.02.2026 Crato 1.5 143,66 215,49
Maria Dias Cavalcante DNS-2 000281-1-8 II 03 a 04.02.2026 Crato 1.5 143,66 215,49
Felipe Alves Meneses DNS-3 300002-5-0 II 03 a 04.02.2026 Crato 1.5 143,66 215,49
Maria Eulália Costa Aragão Gestor Ambiental 300036-1-6 II 03 a 05.02.2026 Viçosa do Ceará/Ubajara 2.5 143,66 359,15
José Eimard M. da Cruz Motorista 000375-1-6 II 04 a 06.02.2026 Morada Nova/Jaguaribara 2.5 143,66 359,15
Arlete Silva de Oliveira Fiscal Ambiental 000655-1-X II 04 a 06.02.2026 Morada Nova/Jaguaribara 2.5 143,66 359,15
Leandro Monteiro da Silva Fiscal Ambiental 000681-1-X II 04 a 06.02.2026 Morada Nova/Jaguaribara 2.5 143,66 359,15
Marcelo Borges Soares Fiscal Ambiental 000558-1-6 II 04 a 06.02.2026 Sobral/Mucambo 2.5 143,66 359,15
Luís Roberto M. de Sabóia Fiscal Ambiental 000654-1-2 II 04 a 06.02.2026 Sobral/Mucambo 2.5 143,66 359,15
Petrônio Silva de Oliveira Gestor Ambiental 000553-1-X II 09 a 10.02.2026 Mauriti/Milagres 1.5 143,66 215,49
Marina Santos da S. Lopes Gestor Ambiental 000644-1-6 II 09 a 11.02.2026 Potengi/Crato 2.5 143,66 359,15
Eugênio da Silva Oliveira Fiscal Ambiental 000529-1-4 II 09 a 11.02.2026 Potengi/Crato 2.5 143,66 359,15
Rodrigo Pinheiro Bastos Fiscal Ambiental 300012-2-2 II 09 a 11.02.2026 Potengi/Crato 2.5 143,66 359,15
Isael Gomes da Silva Fiscal Ambiental 000616-1-1 II 09 a 12.02.2026 Chaval/Camocim 3.5 143,66 502,81
Thiago Russel Miguel Santos Fiscal Ambiental 000601-1-9 II 09 a 12.02.2026 Chaval/Camocim
3.5 143,66 502,81
Ma. Joeni Bezerra Dantas Geógrafo 000147-1-0 II 09 a 13.02.2026 Guaraciaba do Norte/
São Benedito
4.5 143,66 646,47
Luzia Kelly do N. Lourenço Fiscal Ambiental 300012-0-6 II 09 a 13.02.2026 Iguatu/Missão Velha 4.5 143,66 646,47
Raquel Ferreira Gomes Rosa DNS-2 300006-8-4 II 10.02.2026 Sobral/Fortaleza 1/2 143,66 x 35% 96,97
Carlos Eduardo Linhares Feitosa DNS-3 300005-2-8 II 10 a 11.02.2026 Aracati/Icapuí 1.5 143,66 215,49
Manuella Ferreira Vidal Fiscal Ambiental 300010-4-4 II 10 a 11.02.2026 Aracati/Icapuí 1.5 143,66 215,49
Suzana Regia Moreira Matos Gestor Ambiental 000547-1-2 II 10 a 11.02.2026 Aracati/Icapuí 1.5 143,66 215,49
Patrícia de Menezes Gondim Gestor Ambiental 000559-1-3 II 10 a 11.02.2026 Quixeré/Limoeiro do Norte 1.5 143,66 215,49
Ana Leonia de Araújo Fiscal Ambiental 300040-1-9 II 10 a 12.02.2026 Apuiarés/Itapipoca 2.5 143,66 359,15
Cássia do Amaral G. Garrido Fiscal Ambiental 000569-1-X II 10 a 12.02.2026 Apuiarés/Itapipoca 2.5 143,66 359,15
Cícera Luiza de C. Vasconcelos DNS-3 300011-5-X II 11 a 13.02.2026 Crato/Fortaleza 2.5 143,66 x 35% 484,85
Anderson Lima dos Santos Fiscal Ambiental 000653-1-5 II 12 a 13.02.2026 Mauriti/Cedro 1.5 143,66 215,49
José Eimard M. da Cruz Motorista 000375-1-6 II 12 a 13.02.2026 Aracati/Fortim 1.5 143,66 215,49
Anderson Lima dos Santos Fiscal Ambiental 000653-1-5 II 18 a 20.02.2026 Crato/Fortaleza 2.5 143,66 x 35% 484,85
Leonardo de Sousa Rodrigues DNS-3 300007-0-6 II 19.02.2026 Sobral/Fortaleza 1/2 143,66 x 35% 96,97
Raquel Ferreira Gomes Rosa DNS-2 300006-8-4 II 19.02.2026 Sobral/Fortaleza 1/2 143,66 x 35% 96,97
Francisco Frank Soares Gestor Ambiental 000642-1-1 II 19.02.2026 Sobral/Fortaleza 1/2 143,66 x 35% 96,97
Luís Alves da Silva Motorista 000330-1-4 II 23 a 25.02.2026 Alto Santo/Tabuleiro
do Norte
2.5 143,66 359,15
Ma. de Fátima Ximenes
de Menezes
Eng. Civil 000282-1-5 II 23 a 27.02.2026 Juazeiro do Norte/
Limoeiro do Norte
4.5 143,66 646,47
Matheus M. Mendes Carneiro Fiscal Ambiental 300030-1-2 II 24 a 25.02.2026 Acopiara 1.5 143,66 215,49
Mayco Angello F. De Sena Silva Fiscal Ambiental 000597-1-4 II 24 a 26.02.2026 Russas/Limoeiro do Norte 2.5 143,66 359,15
Arlete Silva de Oliveira Fiscal Ambiental 000655-1-X II 24 a 26.02.2026 Russas/Limoeiro do Norte 2.5 143,66 359,15
José Eimard M. da Cruz Motorista 000375-1-6 II 24 a 26.02.2026 Russas/Limoeiro do Norte 2.5 143,66 359,15
Ademar Almeida de Sousa Gestor Ambiental 300037-1-3 II 25 a 26.02.2026 Camocim/Reriutaba 1.5 143,66 215,49
Camila Paula Cesar Maia Gestor Ambiental 000641-1-4 II 25 a 26.02.2026 Camocim/Reriutaba 1.5 143,66 215,49
Suzana Regia Moreira Matos Gestor Ambiental 000547-1-2 II 25 a 26.02.2026 Camocim/Reriutaba 1.5 143,66 215,49
Ângela Ma. Santiago Bessa Analista
Treinamento
000178-1-7 II 25 a 26.02.2026 Jaguaruana/Russas 1.5 143,66 215,49
Maria Evaneida Peixoto Sociólogo 000155-1-2 II 25 a 26.02.2026 Jaguaruana/Russas 1.5 143,66 215,49
Petrônio Silva de Oliveira Gestor Ambiental 000553-1-X II 25 a 26.02.2026 Milagres/Mauriti 1.5 143,66 215,49
Hernandes Felix Rebouças Fiscal Ambiental 000685-1-9 II 25 a 27.02.2026 Guaramiranga/Pacoti 2.5 143,66 359,15
Daisy do Carmo Sousa Fiscal Ambiental 000577-1-1 II 25 a 27.02.2026 Guaramiranga/Pacoti 2.5 143,66 359,15
Anderson Lima dos Santos Fiscal Ambiental 000653-1-5 II 26 a 27.02.2026 Iguatu/Aiuaba 1.5 143,66 215,49
Fábio Erick de Oliveira Paula Fiscal Ambiental 300010-2-8 II 26 a 27.02.2026 Sobral/Uruburetama 1.5 143,66 215,49

*** *** * PORTARIA Nº36/2026 O SUPERINTENDENTE DA SUPERINTENDÊNCIA ESTADUAL DO MEIO AMBIENTE, no uso de suas atribuições legais, RESOLVE DESIGNAR os SERVIDORES** Francisco Alexandre Rocha Pinto, matrícula nº 000071-1-0, Mateus Fernandes da Silva Xavier, matrícula nº 300010-5-2, Bárbara Fernandes Higgins, matrícula nº 000613-1-X, Flávio Farias Lima, matrícula nº 000135-1-X e Cristiane Aguiar do Vale Praciano, matrícula nº 000573-1-2 para sob a coordenação do primeiro comporem a equipe para análise do Estudo de Impacto Ambiental – EIA e respectivo Relatório de Impacto Ambiental – RIMA, referente à solicitação de Licença de Instalação e Operação para usina solar/fotovoltaica, a ser implantado no município de São Gonçalo do Amarante/CE, em razão social de COBRA BRASIL SERVIÇOS, COMUNICAÇÕES E ENERGIA S.A, protocolado através do processo nº 08228983/2023 do VIPROC. SUPERINTENDÊNCIA ESTADUAL DO MEIO AMBIENTE, em Fortaleza, 15 de abril de 2026. João Gabriel Laprovitera Rocha

SUPERINTENDENTE